Terminal Aerodrome Forecast
Issued by NWS

Home | Current Version | Previous Version | Text Only | Print | Product List | Glossary Off
Versions: 1 2 3 4 5 6 7 8 9 10 11 12 13 14 15 16 17 18 19 20 21

000
FTUS43 KIWX 170520
TAFSBN
TAF
KSBN 170520Z 1706/1806 11008KT 3/4SM RA BR OVC003 WS020/19035KT
     FM171200 24009KT 2SM BR OVC003
     FM180000 27008KT 3SM BR OVC006=

USA.gov is the U.S. government's official web portal to all federal, state and local government web resources and services.